Current weather by "City, St" or "zip code"  
 

Current Conditions: Zelienople Municipal Airport, PA

Fog/Mist


27.0 F

Last Updated on Apr 23 2021, 5:55 am EDT
Humidity: 100%
Wind Speed: N 0.0 mph
Barometer 30.10 in
Dewpoint: 26.6 F
Visibility: 5.00 mi
Precip: --
Heat Index: NA
Wind Chill: NA
Current conditions at:

Zelienople Municipal Airport, PA (KPJC)

Lat: 40.80197 Lon: 80.16086

Local Radar Image active severe weather and emergency alerts image image weather storm and storm spotter reports image weather observation monitoring service image
Local
Radar
Active
Alerts
Storm Reports Obs
Monitoring

Sign-up For Email & Text Message Weather Alert Notification Services



Advertise Here

Observation History for Zelienople Municipal Airport, PA


Time Wind
(mph)
Vis
(mi)
Weather Precip (in) Temperature (F) Relative
Humidity
Wind
Chill
(F)
Heat
Index
(F)
Pressure
Air Dwpt altimeter
(in)
sea level
(mb)
Rmks
5:55 am EDT N 0.0 5.00 Fog/Mist -- 27.0 26.6 100% NA NA 30.10 M
4:55 am EDT N 0.0 7.00 Fair -- 27.0 26.6 100% NA NA 30.10 M
3:55 am EDT N 0.0 7.00 Fair -- 28.0 26.6 93% NA NA 30.09 M
2:55 am EDT N 0.0 10.00 Fair -- 28.0 28.4 100% NA NA 30.08 M
1:55 am EDT N 0.0 10.00 Fair -- 30.0 28.4 93% NA NA 30.08 M
12:55 am EDT N 0.0 10.00 Fair -- 30.0 28.4 93% NA NA 30.10 M
11:55 pm EDT N 0.0 10.00 Fair -- 34.0 30.2 87% NA NA 30.09 M
10:55 pm EDT N 0.0 10.00 Overcast -- 36.0 30.2 81% NA NA 30.09 M
9:55 pm EDT W 3.5 10.00 Overcast -- 39.0 26.6 61% NA NA 30.08 M
8:55 pm EDT W 4.6 10.00 Overcast -- 41.0 26.6 57% 38 NA 30.06 M
7:55 pm EDT W 8.1 10.00 Overcast -- 41.0 23.0 49% 36 NA 30.04 M
7:55 pm EDT W 8.1 10.00 Overcast -- 41.0 23.0 49% 36 NA 30.04 M
6:55 pm EDT W 4.6 G 16.1 10.00 Mostly Cloudy -- 43.0 19.4 39% 40 NA 30.03 M
5:55 pm EDT W 11.5 G 18.4 10.00 Mostly Cloudy -- 43.0 19.4 39% 37 NA 30.03 M
4:55 pm EDT NW 10.4 G 17.3 10.00 Overcast -- 43.0 17.6 36% 37 NA 30.02 M
3:55 pm EDT W 9.2 10.00 Overcast -- 43.0 19.4 39% 38 NA 30.03 M
2:55 pm EDT W 11.5 10.00 Mostly Cloudy -- 41.0 17.6 39% 34 NA 30.04 M
1:55 pm EDT W 13.8 G 19.6 10.00 Overcast -- 41.0 17.6 39% 33 NA 30.05 M
12:55 pm EDT W 8.1 G 19.6 10.00 Overcast -- 41.0 17.6 39% 36 NA 30.06 M
11:55 am EDT W 10.4 G 18.4 10.00 Partly Cloudy -- 41.0 17.6 39% 35 NA 30.07 M
10:55 am EDT W 8.1 G 16.1 10.00 Mostly Cloudy -- 36.0 19.4 52% 30 NA 30.07 M
9:55 am EDT W 9.2 G 17.3 10.00 Mostly Cloudy -- 36.0 21.2 56% 29 NA 30.06 M
8:55 am EDT W 5.8 10.00 Mostly Cloudy -- 34.0 26.6 75% 29 NA 30.05 M
7:55 am EDT W 5.8 10.00 Fair -- 32.0 28.4 87% 26 NA 30.03 M

Regional Weather Observation


Zelienople Municipal Airport, PA (KPJC)

Fog/Mist
27.0 F

Beaver County Airport, PA (KBVI)

Fair
34.0 F

Youngstown, Youngstown-Warren Regional Airport, OH (KYNG)

Fair
29.0 F

Pittsburgh, Pittsburgh International Airport, PA (KPIT)

Fair
32.0 F

Butler, Butler County Airport/K W Scholter Field, PA (KBTP)

Fair
30.0 F

Port Meadville Airport, PA (KGKJ)

Fair
31.0 F

Advertise Here


Advertise Here